To NAV CANADA Home Page Login to a new session Search on AWWS site Feedback and Comments Disclaimer Vers la page française équivalente Tips FAQ What's new on the site To the Forecasts and Observations / NOTAM section To "File a Flight Plan" website Publications and other links Update of the User's profile FIC Telephone Numbers My Weather Data Folder Route Weather Data Regional Weather Data Local Weather Data To the Forecasts and Observations / NOTAM section
Request Generated 05/31/2016 at 23:36:14 UTC . Weather information available at that time is displayed.

METAR/TAF

UMIUJAQ/QC    

LWIS CYMU 312300Z AUTO 34019KT M00/M05 A3025=
LWIS CYMU 312200Z AUTO 34021KT 01/M06 A3024=
METAR CYMU 312100Z 33015G25KT 15SM FEW015 01/M05 A3022 RMK SC1 LAST
OBS/ NEXT 011200Z SLP241=

CYMU - No TAF is issued for this station

Your time UTC time
Weather data provided by Environment Canada and NAV CANADA